World > North America > United States > Mississippi > Belmont  

Belmont, MS Hourly Weather Updates

Feedback E-mail the Weather

Quick Clicks

Belmont, MS Weather Maps

°F °C°F °C
Belmont Weather Map
UTC Time: 5/18/2024, 20:20
Your Time:

Belmont, MS Regional Weather

Expires:202405182100;;441826
ASUS44 KJAN 182010
RWRMS 

MISSISSIPPI HOURLY WEATHER ROUNDUP
NATIONAL WEATHER SERVICE JACKSON MS
300 PM CDT SAT MAY 18 2024

NOTE: "FAIR: INDICATES FEW OR NO CLOUDS BELOW 12,000 FEET WITH NO
SIGNIFICANT WEATHER AND/OR OBSTRUCTIONS TO VISIBILITY.


MSZ003>006-009-014>017-022>024-029>033-037>039-182100-
NORTHEAST MISSISSIPPI
  
CITY           SKY/WX    TMP DP  RH WIND       PRES   REMARKS
ABERDEEN       PTSUNNY   79  72  78 CALM      29.84F                  
COLUMBUS AFB   MOSUNNY   79  70  74 NE5       29.79F                  
CORINTH        MOSUNNY   75  64  69 N5        29.86S                  
GOLDN TRIANGLE MOSUNNY   81  70  69 NE9       29.83F                  
IUKA             N/A     73  69  85 CALM      29.86S                  
LOUISVILLE     PTSUNNY   86  66  51 NW9G16    29.86S                  
STARKVILLE     CLOUDY    81  70  69 VRB5      29.81S                  
TUPELO         CLOUDY    76  66  71 N6        29.84S                  
$$


SKY/WX - Weather  TMP - Temperature  DP - Dew Point  RH - Humidity
WIND - Wind Direction/Speed PRES - Barometric Pressure VSB - Visibility
WCI - Wind Chill Index E13G22 Wind - East Wind 13 mph/Gusts of 22 mph

Trending Headlines

Trending Entertainment Headlines

Belmont Radar Loop

Use the map search tool if you want to place a location marker on the radar map...

Belmont Quick Facts

National Two Day Weather Forecast


E-mail the Belmont Weather Forecast

Voice your opinion or tell us about page issues...